Dean International
Flight School

Career Spotlight

Mika

Mika

Congratulations to Mika from Khazakstan. She recently sent us this photo of her flying an Airbus airliner.

More...
Mika's Success Story
close

Congratulations to Mika from Khazakstan. She recently sent us this photo of her flying an Airbus airliner.

Mario

Mario

My dreams could not have been realized if I wouldn't have been part of the Dean International family.

More...
Mario's Success Story
close

"My dreams could not have been realized if I wouldn't have been part of the Dean International family. Thank you Robert, thanks to all my co-workers, and thanks to all of my students!"

Fernando

Fernando

I am now working as a First Officer at TACA and am enjoying every moment of it.

More...
Fernando's Success Story
close

"Will never forget my time of flight training at Dean International. I am now working as a First Officer at TACA and am enjoying every moment of it."

Alvaro

Alvaro

Because of the flight time I was able to built while instructing, I got the experience needed to apply to an airline in Colombia.

More...
Alvaro's Success Story
close

Dean alumnus Alvaro Londoño currently flies with Tampa Cargo. He says of his experience at Dean: "I want to take this opportunity to thank you for giving me the chance to build my experience and expand my knowledge in Dean International. Because of the flight time I was able to built flight instructing, I got the experience needed to apply to an airline in Colombia."

Ralph

Ralph

Every Aruban student of Dean International has made it into Tiara Air Aruba, that is very nice.

More...
Ralph's Success Story
close

"Next to me is my Co-Pilot, Elison. This picture was taken on our first flight together, which was almost exactly 5 years after I finished at Dean International. [...] Every Aruban student of Dean International has made it into Tiara Air Aruba. [...] The future looks bright here in Aruba."

Rohaan

Rohaan

The [..] staff will all work diligently to help you finish your certificates as safely and efficiently as possible.

More...
Rohaan's Success Story
close

After receiving very hard times from other flight schools [...], I came to Dean International where Robert Dean personally sat down with me and gave me a financial and chronological look into how much remained to finish my private pilot certificate. Through his hard efforts as an instructor and mentor, I was able to finish my private pilot certificate within one week.

Welcome to Dean International

In over two decades, Dean International has educated over 7,000 pilots from all over the world, including over 1,000 students from India alone. By offering a great training experience, a friendly service staff, an ample variety of aircraft, and by improving constantly, we have become one of the largest, most prestigious FAA 141-approved flight schools in North America. Located in Miami, Florida, USA, our flight school offers an ideal location for year-round, "learn to fly" weather, flight training. Dean International is not only well-equipped to provide services to professional trainees but also caters to General Aviation renters. Visit or contact our headquarters at Kendall-Tamiami Executive Airport located in Miami, FL today to learn more about us, or simply read more about our programs if you are an international student interested in joining our school.

Local Airport Information
TAF FOR KTMB (Issued: Wed, September 17th 2014 9:21 AM UTC)
TAF
      AMD KTMB 170918Z 1709/1806 VRB03KT P6SM SCT250
      FM171500 25006KT P6SM VCSH SCT050 BKN100
      FM172000 22010KT P6SM VCTS BKN040CB
      FM180100 26004KT P6SM FEW035 SCT250
     
METAR FOR KTMB (Issued: Wed, September 17th 2014 8:53 AM UTC):
KTMB 170853Z AUTO 00000KT 10SM CLR 24/23 A2995 RMK AO2 SLP141 T02440233 56013

This weather information is provided by the National Weather Service.
It is automatically refreshed every three minutes.
TAF FOR KHST (Issued: Wed, September 17th 2014 8:24 AM UTC)
TAF KHST 1708/1814 25006KT 9999 SCT150 QNH2994INS
      BECMG 1714/1715 22009KT 9999 FEW040 QNH2992INS
      TEMPO 1720/1723 6000 -SHRA VCTS BKN035CB
      BECMG 1800/1801 23006KT 9999 SCT030 SCT250 QNH2995INS TX31/1721Z TN23/1712Z
     
METAR FOR KHST (Issued: Wed, September 17th 2014 8:58 AM UTC):
KHST 170858Z AUTO 00000KT 10SM SCT150 25/22 A2994 RMK AO2 SLP142 T02470224 57013

This weather information is provided by the National Weather Service.
It is automatically refreshed every three minutes.
TAF FOR KOPF (Issued: Wed, September 17th 2014 9:18 AM UTC)
TAF
      AMD KOPF 170917Z 1709/1806 VRB03KT P6SM FEW025 SCT250
      FM171500 25008KT P6SM VCSH SCT050 BKN100
      FM172000 21010KT P6SM VCTS BKN040CB
      FM180100 25004KT P6SM FEW035 SCT250
     
METAR FOR KOPF (Issued: Wed, September 17th 2014 8:53 AM UTC):
KOPF 170853Z AUTO 29003KT 10SM CLR 25/22 A2995 RMK AO2 SLP144 T02500222 55012

This weather information is provided by the National Weather Service.
It is automatically refreshed every three minutes.
TAF FOR KMIA (Issued: Wed, September 17th 2014 9:24 AM UTC)
TAF
      AMD KMIA 170918Z 1709/1806 VRB03KT P6SM FEW025 SCT150
      FM171500 23008KT P6SM VCSH SCT050 BKN100
      FM172000 20010KT P6SM VCTS BKN040CB
      FM180100 25004KT P6SM FEW035 SCT250
     
METAR FOR KMIA (Issued: Wed, September 17th 2014 8:53 AM UTC):
KMIA 170853Z 00000KT 10SM FEW025 SCT150 BKN250 26/23 A2995 RMK AO2 SLP141 T02560233 56013

This weather information is provided by the National Weather Service.
It is automatically refreshed every three minutes.
Design by Ariel Llizo
© Dean International Inc. 2012